[ hide orbit diagram ]
For accurate long-term ephemerides, please instead use our Horizons system.This orbit viewer was implemented using two-body methods, and hence should not be used for determining accurate long-term trajectories (over several years or decades) or planetary encounter circumstances.
Orbital Elements at Epoch 2459000.5 (2020-May-31.0) TDB
Reference: JPL 27 (heliocentric ecliptic J2000)
Element | Value | Uncertainty (1-sigma) | Units |
e | .005963549964255467 | 3.5503e-08 | |
a | 2.701413855400641 | 1.1195e-08 | au |
q | 2.685303838899827 | 9.5329e-08 | au |
i | 1.24374417776701 | 3.9267e-06 | deg |
node | 213.3048926362003 | 0.00017855 | deg |
peri | 277.8116295357273 | 0.00038069 | deg |
M | 126.1646276322341 | 0.00033601 | deg |
tp | 2458432.144298708300 (2018-Nov-09.64429871) | 0.0015136 | TDB |
period | 1621.754498903116 4.44 | 1.0082e-05 2.76e-08 | d yr |
n | .2219818105906217 | 1.3799e-09 | deg/d |
Q | 2.717523871901455 | 1.1262e-08 | au |
|
| | Orbit Determination Parameters
Additional Information
|
[ show covariance matrix ]
Physical Parameter Table
Parameter |
Symbol |
Value |
Units |
Sigma |
Reference |
Notes |
absolute magnitude |
H |
13.5 |
|
n/a |
MPO384918 |
|
diameter |
diameter |
5.797 |
km |
0.233 |
urn:nasa:pds:neowise_diameters_albedos::2.0[mainbelt] (http://adsabs.harvard.edu/abs/2011ApJ...741...68M) |
|
geometric albedo |
albedo |
0.145 |
|
0.015 |
urn:nasa:pds:neowise_diameters_albedos::2.0[mainbelt] (http://adsabs.harvard.edu/abs/2011ApJ...741...68M) |
|
|
19156 Heco | Discovered 1990 Sept. 20 by T. Seki at Geisei. |
Joseph Heco (Hikozo Hamada, 1837--1897) was born in Harima town, Hyogo prefecture. He survived a shipwreck in 1851, was taken to the US and became one of the first Japanese to become a US citizen. Returning to Japan, he published the first Japanese newspaper, while Japan was still closed to the outside world. |
NOTE: some special characters may not display properly (any characters within {} are an attempt to place the proper accent above a character) |
Reference: 20121228/MPCPages.arc | Last Updated: 2013-01-02 |
|
[ show close-approach data ]
|